This is the latest recevied weather packets stored in our database for station/object W3AJR. If no packets are shown the sender has not sent any weather packets the latest 1 day(s).
| Time | Temp. | Humidity | Pressure | Rain* | Wind** | Luminosity | Snow |
|---|---|---|---|---|---|---|---|
| 1836274707 | 17.78° C | 99% | 1019.8 hPa | 0 mm | 0 m/s | 0 W/m² | - |
| 1836274560 | 17.78° C | 99% | 1019.7 hPa | 0 mm | 0 m/s | 0 W/m² | - |
| 1836274406 | 17.78° C | 99% | 1019.9 hPa | 0 mm | 0 m/s | 0 W/m² | - |
| 1836274259 | 17.78° C | 99% | 1020.1 hPa | 0 mm | 0 m/s | 0 W/m² | - |
| 1836274104 | 17.78° C | 98% | 1019.8 hPa | 0 mm | 0 m/s | 0 W/m² | - |
| 1778036951 | 20.56° C | 51% | 1010.3 hPa | 0 mm | 0.89 m/s, 208° | 0 W/m² | - |
| 1778036649 | 20.56° C | 52% | 1010.2 hPa | 0 mm | 0 m/s | 0 W/m² | - |
| 1778036345 | 20.56° C | 51% | 1010.4 hPa | 0 mm | 0.89 m/s, 217° | 0 W/m² | - |
| 1778036043 | 20.56° C | 51% | 1010.3 hPa | 0 mm | 1.79 m/s, 185° | 0 W/m² | - |
| 1778035739 | 20° C | 51% | 1010.4 hPa | 0 mm | 0 m/s | 0 W/m² | - |
| 1778035436 | 20° C | 50% | 1010.5 hPa | 0 mm | 0.45 m/s, 225° | 0 W/m² | - |
| 1778035132 | 20° C | 50% | 1010.5 hPa | 0 mm | 0.45 m/s, 220° | 0 W/m² | - |
| 1778034829 | 20° C | 50% | 1010.4 hPa | 0 mm | 0 m/s | 0 W/m² | - |
| 1778034526 | 19.44° C | 51% | 1010.5 hPa | 0 mm | 0 m/s | 0 W/m² | - |
| 1778034224 | 19.44° C | 51% | 1010.5 hPa | 0 mm | 0 m/s | 0 W/m² | - |
| 1778033921 | 20° C | 50% | 1010.3 hPa | 0 mm | 0 m/s | 0 W/m² | - |
| 1778033618 | 20° C | 49% | 1010.6 hPa | 0 mm | 0 m/s | 0 W/m² | - |
| 1778033315 | 20.56° C | 48% | 1010.5 hPa | 0 mm | 0 m/s | 0 W/m² | - |
| 1778033013 | 20.56° C | 48% | 1010.2 hPa | 0 mm | 0 m/s | 0 W/m² | - |
| 1778032710 | 21.11° C | 47% | 1010.6 hPa | 0 mm | 0 m/s | 0 W/m² | - |
| 1778032408 | 21.67° C | 46% | 1010.5 hPa | 0 mm | 0 m/s | 0 W/m² | - |
| 1778032104 | 21.67° C | 45% | 1010.5 hPa | 0 mm | 0.45 m/s, 217° | 0 W/m² | - |
| 1778031801 | 22.22° C | 44% | 1010.7 hPa | 0 mm | 0 m/s | 0 W/m² | - |
| 1778031498 | 22.22° C | 42% | 1010.4 hPa | 0 mm | 1.34 m/s, 212° | 0 W/m² | - |
| 1778031195 | 22.78° C | 42% | 1010.2 hPa | 0 mm | 0.89 m/s, 197° | 0 W/m² | - |
* Rain latest hour (hover to see other rain measurements)
** Current wind speed in m/s (hover to see current wind gust speed)